Location: Home
(42.5358°N, 72.7383°W)
Time: 05:18:38
(UTC-05:00)

Courier 1B Rocket - Pass Details

Date: 29 November 2021
Orbit: 920 x 1202 km, 28.2° (Epoch: 25 January)

Event Time Altitude Azimuth Distance (km) Brightness Sun altitude
Rises 02:46:10 0° 246° (WSW) 3,555 - -45.9°
Reaches altitude 10° 02:49:19 10° 231° (SW) 2,630 - -45.3°
Maximum altitude 02:54:00 22° 183° (S) 1,954 - -44.5°
Exits shadow 02:58:44 10° 136° (SE) 2,706 7.6 -43.6°
Drops below altitude 10° 02:58:49 10° 135° (SE) 2,732 7.6 -43.6°
Sets 03:02:11 0° 121° (ESE) 3,731 8.6 -43.0°
